Weather History for MCMWTC BRIDGEPORT, CA, CA

Change the Weather History Date:

Friday, December 5, 2014

  Actual Average (KTVL) Record (KTVL)
Temperature  
Mean Temperature 36 °F 31 °F  
Max Temperature 46 °F 44 °F 57 °F (1990)
Min Temperature 25 °F 18 °F -8 °F (1972)
Degree Days  
Heating Degree Days 30 34  
Month to date heating degree days 168  
Since 1 July heating degree days 2261  
Cooling Degree Days 0 0  
Month to date cooling degree days 0  
Year to date cooling degree days 31  
Moisture  
Dew Point 26 °F    
Average Humidity 72    
Maximum Humidity 85    
Minimum Humidity 49    
Precipitation  
Precipitation 0.00 in - 2.00 in (1966)
Month to date precipitation  
Year to date precipitation  
Sea Level Pressure  
Sea Level Pressure 30.12 in    
Wind  
Wind Speed 1 mph (SSE)    
Max Wind Speed 8 mph    
Max Gust Speed -    
T = Trace of Precipitation, MM = Missing Value Source: NWS Daily Summary

Daily Weather History Graph

Daily Weather History Graph

Search for Another Location

Airport:

Trip Planner

Search our weather history database for the weather conditions in past years. The results will help you decide how hot, cold, wet, or windy it might be!

Date:

Astronomy

Dec. 05, 2014 Rise Set
Actual Time 7:00 AM PST 4:37 PM PST
Civil Twilight 6:30 AM PST 5:06 PM PST
Nautical Twilight 5:57 AM PST 5:39 PM PST
Astronomical Twilight 5:25 AM PST 6:11 PM PST
Moon 4:27 PM PST (12/5) 5:59 AM PST (12/5)
Length of Visible Light 10h 36m
Length of Day
9h 37m
Waxing Gibbous, 99% of the Moon is Illuminated
Dec 5
Waxing Gibbous
Dec 6
Full
Dec 14
Last Quarter
Dec 21
New
Dec 28
First Quarter

Hourly Weather History & Observations

Time (PST) Temp. Windchill Dew Point Humidity Pressure Visibility Wind Dir Wind Speed Gust Speed Precip Events Conditions
12:52 AM 26.1 °F - 21.9 °F 84% 30.09 in - Calm Calm - N/A   Clear
1:52 AM 26.1 °F - 21.0 °F 81% 30.09 in - Calm Calm - N/A   Clear
2:52 AM 27.0 °F - 23.0 °F 85% 30.11 in - Calm Calm - N/A   Clear
3:52 AM 27.0 °F - 21.9 °F 81% 30.11 in - Calm Calm - N/A   Clear
4:52 AM 25.0 °F - 21.0 °F 85% 30.13 in - Calm Calm - N/A   Clear
5:52 AM 27.0 °F - 23.0 °F 85% 30.13 in - Calm Calm - N/A   Clear
6:52 AM 26.1 °F - 21.9 °F 84% 30.17 in - Calm Calm - N/A   Clear
7:52 AM 26.1 °F - 21.9 °F 84% 30.20 in - Calm Calm - N/A   Clear
8:52 AM 28.9 °F - 25.0 °F 85% 30.19 in - Calm Calm - N/A   Clear
9:52 AM 33.1 °F - 27.0 °F 78% 30.18 in - Calm Calm - N/A   Clear
10:52 AM 37.9 °F - 28.9 °F 70% 30.15 in - Calm Calm - N/A   Clear
11:52 AM 43.0 °F - 28.9 °F 58% 30.10 in - Calm Calm - N/A   Clear
12:52 PM 45.0 °F 42.6 °F 27.0 °F 49% 30.08 in - East 4.6 mph - N/A   Clear
1:52 PM 45.0 °F 43.5 °F 27.0 °F 49% 30.09 in - East 3.5 mph - N/A   Clear
2:52 PM 46.9 °F - 30.0 °F 52% 30.06 in - SSW 8.1 mph - N/A   Partly Cloudy
3:52 PM 45.0 °F 41.2 °F 28.9 °F 53% 30.08 in - SSW 6.9 mph - N/A   Scattered Clouds
4:52 PM 41.0 °F 37.1 °F 28.9 °F 62% 30.11 in - NE 5.8 mph - N/A   Partly Cloudy
5:52 PM 39.9 °F 37.8 °F 30.0 °F 68% 30.12 in - Variable 3.5 mph - N/A   Overcast
6:52 PM 37.0 °F - 28.9 °F 73% 30.14 in - Calm Calm - N/A   Clear
7:52 PM 35.1 °F - 28.9 °F 78% 30.16 in - Calm Calm - N/A   Clear
8:52 PM 33.1 °F - 28.0 °F 82% 30.16 in - Calm Calm - N/A   Overcast
9:52 PM 36.0 °F - 28.0 °F 73% 30.13 in - Calm Calm - N/A   Overcast
10:52 PM 39.9 °F 35.1 °F 27.0 °F 60% 30.10 in - Variable 6.9 mph - N/A   Mostly Cloudy
11:52 PM 39.9 °F 35.8 °F 26.1 °F 58% 30.07 in - WSW 5.8 mph - N/A   Clear